Find Kosmos-1999

NORAD ID: 19790 Int'l Des: 1989-009 Owner: UNKS Country: SU operational
LEOCIRCULARPOLAR

实时位置

正在加载3D地球...

关于 Kosmos-1999

正在加载描述...

即将过境

Passes for default location (London). Set your location on the main map for personalized predictions.

高度历史

Loading altitude history...

两行轨道根数

1 19790U 89009F 26105.83192685 .00000020 00000-0 50249-4 0 9994
2 19790 82.6236 6.5636 0019959 8.0929 59.1443 12.65748700717362
Epoch: Apr 15, 2026 • Age: 10 hours

当前状态

高度 1408.6 km
速度 7.16 km/s
星下点 79.45°N, 122.73°E
发射日期 Feb 10, 1989
运行时间 37.1 years
类型 other

技术详情

分类 Payload
质量 225.00 kg
干质量 225.00 kg
总质量 225.00 kg
长度 1.60 m
直径 0.80 m
跨度 7.00 m
形状 Cyl + Ant
制造商 NPOPM
平台类型 Strela-3
阶段状态 In Orbit
所有者/国家 UNKS/SU

Most Searched